Regional Weather Roundup
Issued by NWS

Home | Current Version | Previous Version | Text Only | Print | Product List | Glossary Off
Versions: 1 2 3 4 5 6 7 8 9 10 11 12 13 14 15 16 17 18 19 20 21 22 23 24 25 26 27 28 29 30 31 32 33 34 35 36 37 38 39 40 41 42 43 44 45 46 47 48 49 50

000
ASUS43 KDTX 281310
RWRMI
MICHIGAN HOURLY REGIONAL WEATHER ROUNDUP
NATIONAL WEATHER SERVICE DETROIT/PONTIAC MI
900 AM EDT FRI AUG 28 2015

NOTE: "FAIR" INDICATES FEW OR NO CLOUDS BELOW 12,000 FEET WITH NO
SIGNIFICANT WEATHER AND/OR OBSTRUCTION TO VISIBILITY.

MIZ047>049-052>055-059>063-066>070-074>076-081>083-281400-
SOUTHEAST LOWER MICHIGAN

CITY           SKY/WX    TMP DP  RH WIND       PRES   REMARKS
ADRIAN         PTSUNNY   59  56  89 CALM      30.22R
ALMA           SUNNY     55  55 100 CALM      30.20R FOG
ANN ARBOR      MOSUNNY   57  56  96 CALM      30.21R
BAD AXE        SUNNY     58  55  88 SW5       30.20S
CARO           SUNNY     57  55  92 S3        30.20S
DETROIT CITY   CLOUDY    59  54  83 CALM      30.22R
DETROIT        PTSUNNY   61  54  77 CALM      30.22S
FLINT          SUNNY     58  54  86 S3        30.21R HAZE
GROSSE ILE     SUNNY     63  57  82 CALM      30.20S
HILLSDALE      PTSUNNY   59  59  99 S5        30.21R FOG
HOWELL         SUNNY     56  55  98 CALM      30.20S FOG

CITY           SKY/WX    TMP DP  RH WIND       PRES   REMARKS
JACKSON        PTSUNNY   58  56  93 S3        30.21R
LAMBERTVILLE   MOSUNNY   59  57  92 CALM      30.21R FOG
LANSING        PTSUNNY   57  54  89 S5        30.21R
LAPEER         FAIR      55  55 100 CALM      30.21S
MASON          MOSUNNY   54  53  99 S3        30.21S FOG
MONROE         MOSUNNY   57  55  92 CALM      30.21R FOG
MT. CLEMENS    MOSUNNY   58  56  93 CALM      30.19S
PONTIAC        MOSUNNY   57  55  93 CALM      30.21R
PORT HOPE        N/A     59  54  83 SW9       30.18S
PORT HURON     SUNNY     57  57 100 CALM      30.22R
TRI CITIES     SUNNY     59  54  83 S7        30.21R
MIDLAND        FAIR      58  55  87 S3        30.19S
TROY           CLOUDY    60  54  81 CALM      30.24R
SAGINAW HB     SUNNY     59  55  88 S7        30.20R
$$
MIZ043>046-050>051-056>058-064>065-071>073-077>080-281400-
SOUTHWEST LOWER MICHIGAN

CITY           SKY/WX    TMP DP  RH WIND       PRES   REMARKS
BATTLE CREEK   SUNNY     60  55  83 S7        30.20R
BENTON HARBOR  SUNNY     60  56  86 SE5       30.16R
BIG RAPIDS     MOSUNNY   54  53  99 CALM      30.18R FOG
COLDWATER      PTSUNNY   59  57  93 SE5       30.19S
FREMONT        FAIR      56  56 100 S3        30.17S
HOLLAND        SUNNY     59  56  89 SE6       30.18R
GRAND RAPIDS   PTSUNNY   57  55  93 SE5       30.18S
IONIA          CLOUDY    56  55  98 CALM      30.19S
KALAMAZOO      MOSUNNY   60  55  83 S3        30.19S
LUDINGTON      PTSUNNY   58  56  91 SE3       30.16S
MARSHALL       SUNNY     58  55  90 CALM      30.20R
MOUNT PLEASANT SUNNY     60  57  88 CALM      30.18S
MUSKEGON       PTSUNNY   60  55  83 SE7       30.17S
SOUTH HAVEN    MOSUNNY   59  56  88 CALM      30.17R
$$
MIZ016>042-281400-
NORTHERN LOWER MICHIGAN

CITY           SKY/WX    TMP DP  RH WIND       PRES   REMARKS
ALPENA         SUNNY     58  55  90 S5        30.16S
BEAVER ISLAND  MOSUNNY   65  60  83 SW14      30.12R
BELLAIRE       SUNNY     60  58  92 S6        30.15S
CADILLAC       SUNNY     59  56  91 SW8       30.17S
CHARLEVOIX     PTSUNNY   62  59  92 S8        30.16R
FRANKFORT      PTSUNNY   61  59  92 SE3       30.15S
GAYLORD        SUNNY     58  57  97 SW7       30.16S
GRAYLING       SUNNY     55  53  94 CALM      30.18S
HARBOR SPRINGS MOSUNNY   60  57  90 CALM      30.14R
HOUGHTON LAKE  SUNNY     60  57  89 SW5       30.19R
MANISTEE       MOSUNNY   55  52  88 SE3       30.17R
OSCODA         SUNNY     59  57  94 SW5       30.18R
PELLSTON       PTSUNNY   61  59  93 SE5       30.13S
ROGERS CITY    SUNNY     60  55  85 SW8       30.15S
TRAVERSE CITY  PTSUNNY   63  56  78 VRB3      30.14R
$$
MIZ007>008-015-281400-
EASTERN UPPER MICHIGAN

CITY           SKY/WX    TMP DP  RH WIND       PRES   REMARKS
KINROSS        CLOUDY    63  63 100 SW3       30.10F
MACKINAC ISLAN SUNNY     62  59  91 S7        30.11S
NEWBERRY       MOSUNNY   61  59  94 SW9       30.09R
S. S. MARIE    MOSUNNY   59  58  96 CALM      30.10R
MUNISING         N/A     64  57  78 SW10      30.05S
$$
MIZ004>006-011>014-085-281400-
CENTRAL UPPER MICHIGAN

CITY           SKY/WX    TMP DP  RH WIND       PRES   REMARKS
MANISTIQUE     MOSUNNY   63  59  88 SW7       30.09S
ESCANABA       PTSUNNY   61  57  88 SW3       30.09S
MENOMINEE      PTSUNNY   63  55  77 SW9       30.09F
SAWYER-GWINN   SUNNY     59  55  88 SW7       30.07R
$$
MIZ001>003-009>011-084-281400-
WESTERN UPPER MICHIGAN

CITY           SKY/WX    TMP DP  RH WIND       PRES   REMARKS
IRON MOUNTAIN  PTSUNNY   60  57  89 S7        30.07S
HOUGHTON       MOSUNNY   59  56  89 CALM      30.01R
COPPER HARBOR    N/A     63  57  81 VRB3      29.98S
IRONWOOD       MOSUNNY   63  59  88 SW6       30.00R
$$

ABBREVIATIONS USED IN REMARKS
   TC - TEMPERATURE IN CELSIUS
  WCI - WIND CHILL INDEX
   HX - HEAT INDEX
  VSB - VISIBILITY




USA.gov is the U.S. government's official web portal to all federal, state and local government web resources and services.